Hourly Data Report for October 21, 2015

All times are specified in Local Standard Time (LST). Add 1 hour to adjust for Daylight Saving Time where and when it is observed.

POND INLET A
NUNAVUT

72°41'22.000" N
77°58'08.000" W
61.60 m
2403206
71095
YIO

Related Data

No related data is available for this station

Download Data

Hourly Data (October 2015)
Hourly Data Report for October 21, 2015
Temp Definition
°C
Dew Point Temp Definition
°C
Rel Hum Definition
%
Wind Dir Definition
10's deg

Wind Spd Definition
km/h
Visibility Definition
km
Stn Press Definition
kPa
Hmdx Definition


Wind Chill Definition


Weather Definition


TIME
00:00 Legend Double Dagger -8.6 -9.5 93 27 28 1.2 100.16   -17 Snow
01:00 Legend Double Dagger -8.7 -9.9 91 27 34 3.2 100.15   -18 Snow
02:00 Legend Double Dagger -9.0 -10.5 89 27 35 4.8 100.13   -19 Snow
03:00 Legend Double Dagger -9.2 -11.0 87 27 32 6.4 100.13   -19 Snow
04:00 Legend Double Dagger -9.1 -10.8 87 27 26 9.7 100.10   -18 Snow
05:00 Legend Double Dagger -9.1 -11.2 85 27 32 14.5 100.09   -19 LegendNANA
06:00 Legend Double Dagger -9.2 -11.8 82 27 26 16.1 100.11   -18 Snow
07:00 Legend Double Dagger -9.1 -10.7 88 27 21 12.9 100.08   -17 Snow
08:00 Legend Double Dagger -9.0 -11.4 83 25 22 16.1 100.09   -17 Snow
09:00 Legend Double Dagger -9.2 -10.8 89 26 13 3.6 100.08   -15 Snow
10:00 Legend Double Dagger -11.0 -12.8 87 14 17 16.1 100.08   -18 LegendNANA
11:00 Legend Double Dagger -9.5 -12.8 77 26 17 16.1 100.06   -17 LegendNANA
12:00 Legend Double Dagger -9.6 -12.8 78 25 18 16.1 100.05   -17 LegendNANA
13:00 Legend Double Dagger -10.9 -12.8 86 16 21 16.1 100.05   -19 Snow
14:00 Legend Double Dagger -10.7 -12.7 86 19 17 16.1 100.07   -18 Snow
15:00 Legend Double Dagger -10.2 -13.3 78 25 22 16.1 100.08   -18 LegendNANA
16:00 Legend Double Dagger -9.9 -12.7 80 27 17 16.1 100.06   -17 Snow
17:00 Legend Double Dagger -10.4 -12.1 87 22 11 4.8 100.03   -16 Snow
18:00 Legend Double Dagger -10.1 -12.1 86 21 26 11.3 99.98   -19 Snow
19:00 Legend Double Dagger -9.7 -10.9 91 28 24 1.2 99.93   -18 Snow
20:00 Legend Double Dagger -10.2 -11.6 90 27 28 1.2 99.90   -19 Snow
21:00 Legend Double Dagger -9.7 -11.1 90 26 34 1.6 99.87   -20 Snow
22:00 Legend Double Dagger -9.6 -11.2 88 25 39 4.0 99.81   -20 Snow
23:00 Legend Double Dagger -10.5 -11.7 91 21 34 0.8 99.80   -21 Moderate Snow

Notes on Data Quality.

Legend

  • E = Estimated
  • M = Missing
  • NA = Not Available
  • ‡ = Partner data that is not subject to review by the National Climate Archives
Date modified: